Change the Weather History Date:

Friday, September 14, 2012

  Actual Average Record
Temperature  
Mean Temperature 58 °F -  
Max Temperature 60 °F 84 °F 102 °F (1956)
Min Temperature 55 °F 61 °F 45 °F (1959)
Degree Days  
Heating Degree Days 8    
Growing Degree Days 8 (Base 50)    
Moisture  
Dew Point 57 °F    
Average Humidity 98    
Maximum Humidity 100    
Minimum Humidity 88    
Precipitation  
Precipitation 0.47 in - - ()
Sea Level Pressure  
Sea Level Pressure 30.27 in    
Wind  
Wind Speed 11 mph (NNE)    
Max Wind Speed 15 mph    
Max Gust Speed 20 mph    
Visibility 5 miles    
Events Rain    
Averages and records for this station are not official NWS values.
T = Trace of Precipitation, MM = Missing Value Source: NWS Daily Summary

Daily Weather History Graph

Daily Weather History Graph

Search for Another Location

Airport or City:

Trip Planner

Search our weather history database for the weather conditions in past years. The results will help you decide how hot, cold, wet, or windy it might be!

Date:

Astronomy

Sep. 14, 2012 Rise Set
Actual Time 7:05 AM CDT 7:32 PM CDT
Civil Twilight 6:39 AM CDT 7:58 PM CDT
Nautical Twilight 6:09 AM CDT 8:28 PM CDT
Astronomical Twilight 5:38 AM CDT 8:59 PM CDT
Moon 5:32 AM CDT (9/14) 6:29 PM CDT (9/14)
Length of Visible Light 13h 18m
Length of Day
12h 26m
Waning Crescent, 2% of the Moon is Illuminated
Sep 14
Waning Crescent
Sep 15
New
Sep 22
First Quarter
Sep 29
Full
Oct 8
Last Quarter

Hourly Weather History & Observations

Time (CDT) Temp. Dew Point Humidity Pressure Visibility Wind Dir Wind Speed Gust Speed Precip Events Conditions
12:01 AM 57.2 °F 55.4 °F 94% 30.29 in 10.0 mi NNE 11.5 mph - N/A   Overcast
12:53 AM 57.0 °F 55.9 °F 96% 30.27 in 10.0 mi North 10.4 mph 18.4 mph 0.01 in Rain Light Rain
1:53 AM 57.0 °F 55.0 °F 93% 30.27 in 10.0 mi NNE 15.0 mph - 0.00 in   Overcast
2:53 AM 55.9 °F 55.0 °F 97% 30.27 in 4.0 mi North 8.1 mph - 0.09 in Rain Rain
3:23 AM 55.4 °F 55.4 °F 100% 30.27 in 5.0 mi North 9.2 mph - 0.06 in Rain Light Rain
3:50 AM 55.4 °F 55.4 °F 100% 30.26 in 6.0 mi North 12.7 mph - 0.09 in Rain Light Rain
3:53 AM 55.9 °F 55.9 °F 100% 30.24 in 6.0 mi North 12.7 mph - 0.09 in Rain Light Rain
4:53 AM 55.0 °F 55.0 °F 100% 30.25 in 10.0 mi NNE 11.5 mph - 0.03 in Rain Light Rain
5:53 AM 55.0 °F 55.0 °F 100% 30.26 in 7.0 mi North 6.9 mph - 0.03 in Rain Light Rain
6:23 AM 55.4 °F 55.4 °F 100% 30.27 in 7.0 mi North 10.4 mph - 0.03 in Rain Light Rain
6:53 AM 55.9 °F 55.9 °F 100% 30.26 in 9.0 mi North 10.4 mph - 0.05 in Rain Light Rain
7:27 AM 55.4 °F - N/A% 30.29 in 10.0 mi North 5.8 mph - 0.03 in Rain Light Rain
7:53 AM 55.0 °F - N/A% 30.28 in 10.0 mi North 9.2 mph - 0.03 in   Overcast
8:53 AM 55.0 °F 54.0 °F 96% 30.27 in 6.0 mi NNE 11.5 mph - 0.01 in   Overcast
9:53 AM 55.9 °F 55.0 °F 97% 30.29 in 4.0 mi NNE 12.7 mph - 0.01 in   Overcast
10:17 AM 55.4 °F 55.4 °F 100% 30.31 in 2.5 mi NNE 12.7 mph - 0.00 in Rain Light Rain
10:53 AM 55.9 °F 55.9 °F 100% 30.30 in 2.5 mi NNE 13.8 mph - 0.01 in Rain Light Rain
11:29 AM 55.4 °F 55.4 °F 100% 30.31 in 4.0 mi NNE 11.5 mph - 0.01 in Rain Light Rain
11:53 AM 55.9 °F 55.9 °F 100% 30.30 in 2.0 mi NNE 15.0 mph 19.6 mph 0.02 in Rain Light Rain
12:00 PM 55.4 °F 55.4 °F 100% 30.31 in 1.8 mi North 13.8 mph 19.6 mph 0.00 in Rain Light Rain
12:53 PM 57.0 °F 57.0 °F 100% 30.29 in 2.5 mi North 12.7 mph - 0.01 in Rain Light Rain
1:07 PM 57.2 °F 57.2 °F 100% 30.30 in 1.8 mi NNE 12.7 mph - 0.00 in Rain Light Rain
1:15 PM 57.2 °F 57.2 °F 100% 30.30 in 2.5 mi North 13.8 mph - 0.00 in Rain Light Rain
1:22 PM 57.2 °F 57.2 °F 100% 30.30 in 3.0 mi NNE 12.7 mph - 0.01 in   Overcast
1:53 PM 57.9 °F 57.9 °F 100% 30.28 in 5.0 mi North 11.5 mph - 0.01 in   Overcast
2:17 PM 59.0 °F 57.2 °F 94% 30.28 in 1.8 mi NNE 11.5 mph - 0.00 in Rain Light Rain
2:53 PM 59.0 °F 57.9 °F 96% 30.26 in 1.5 mi NNE 11.5 mph - 0.01 in Rain Light Rain
3:12 PM 59.0 °F 57.2 °F 94% 30.27 in 3.0 mi NNE 11.5 mph - 0.01 in Rain Light Rain
3:53 PM 59.0 °F 57.9 °F 96% 30.25 in 5.0 mi NNE 10.4 mph - 0.01 in   Overcast
4:40 PM 59.0 °F 57.2 °F 94% 30.26 in 10.0 mi NNE 8.1 mph - N/A   Overcast
4:53 PM 60.1 °F 59.0 °F 96% 30.25 in 10.0 mi North 8.1 mph - N/A   Overcast
5:00 PM 60.8 °F 57.2 °F 88% 30.26 in 10.0 mi NNE 9.2 mph - N/A   Overcast
5:44 PM 59.0 °F 59.0 °F 100% 30.25 in 2.0 mi NNE 8.1 mph - N/A   Overcast
5:53 PM 59.0 °F 59.0 °F 100% 30.24 in 2.5 mi NNE 8.1 mph - N/A   Overcast
6:02 PM 60.8 °F 59.0 °F 94% 30.25 in 5.0 mi NNE 8.1 mph - N/A   Overcast
6:41 PM 60.8 °F 59.0 °F 94% 30.25 in 2.5 mi NNE 6.9 mph - 0.01 in   Overcast
6:53 PM 60.1 °F 59.0 °F 96% 30.24 in 1.8 mi NNE 5.8 mph - 0.01 in Rain Light Rain
7:26 PM 59.0 °F 59.0 °F 100% 30.25 in 3.0 mi NE 6.9 mph - 0.02 in Rain Light Rain
7:53 PM 59.0 °F 59.0 °F 100% 30.24 in 5.0 mi NE 5.8 mph - 0.02 in   Overcast
8:53 PM 59.0 °F 59.0 °F 100% 30.25 in 9.0 mi NNE 8.1 mph - N/A   Overcast
9:53 PM 60.1 °F 59.0 °F 96% 30.25 in 5.0 mi NNE 5.8 mph - N/A   Overcast
10:53 PM 60.1 °F 59.0 °F 96% 30.25 in 5.0 mi NNE 5.8 mph - 0.01 in Rain Light Rain
11:53 PM 60.1 °F 59.0 °F 96% 30.24 in 2.5 mi NNE 4.6 mph - 0.01 in Rain Light Rain